Location: Rathdrum
(47.8130°N, 116.8960°W)
Time: 01:50:47
(UTC-08:00)

Amateur Radio Satellites - All Passes

Search period start: 08 December 2016 01:20
Search period end: 09 December 2016 01:20
Location: Rathdrum, 47.8130°N, 116.8960°W

Satellite Date Start Highest point End Downlink Frequencies (MHz)
Time Altitude Azimuth
ITUPSAT 1 08 Dec 01:21:49 01:26:35 74° 73° (ENE) 01:31:22 437.325
O/OREOS (USA 219) 08 Dec 01:22:05 01:26:25 49° 250° (WSW) 01:30:44 437.305
TISAT 1 08 Dec 01:31:30 01:34:36 20° 268° (W) 01:37:44 437.305
Gurwin Techsat 1B 08 Dec 01:32:29 01:37:39 48° 99° (E) 01:42:46 435.225
BUGSAT 1 08 Dec 01:36:45 01:39:47 20° 298° (WNW) 01:42:47 437.445
MOZHAYETS 4 08 Dec 01:40:09 01:44:08 30° 66° (ENE) 01:48:07
SO-50 08 Dec 01:44:02 01:47:10 18° 27° (NNE) 01:50:14 436.795
GONETS M04 08 Dec 01:52:14 02:00:10 38° 293° (WNW) 02:08:10
ITAMSAT 1 08 Dec 01:53:05 01:56:40 18° 90° (E) 02:00:13 435.822/435.867
Cosmos 2499 08 Dec 01:53:09 02:00:55 35° 295° (WNW) 02:08:53 435.465 / 435.565
KKS-1 08 Dec 01:55:04 01:58:22 20° 61° (ENE) 02:01:40 437.445
STARS 08 Dec 01:57:07 01:58:27 11° 55° (NE) 01:59:48 437.465
AUBIESAT-1 08 Dec 02:09:28 02:13:08 28° 261° (W) 02:17:01 437.475
AO-85 08 Dec 02:19:17 02:23:59 52° 313° (NW) 02:28:20 145.980
M-CUBED/EXP-1 PRIME 08 Dec 02:24:46 02:27:37 17° 265° (W) 02:30:36 437.505
SWISSCUBE 08 Dec 02:27:40 02:31:38 26° 266° (W) 02:35:37 437.505
BEESAT 08 Dec 02:31:25 02:35:25 26° 266° (W) 02:39:26 436.000
AO-7 08 Dec 02:32:46 02:39:59 31° 94° (E) 02:47:09 29.400- 29.500
PHONESAT 2.4 08 Dec 02:40:57 02:42:18 13° 193° (SSW) 02:43:40 2401.200-2431.200
Oscar 19 08 Dec 02:59:12 03:02:56 21° 301° (WNW) 03:06:42 437.125/150
ITUPSAT 1 08 Dec 03:02:17 03:04:58 15° 271° (W) 03:07:40 437.325
Gurwin Techsat 1B 08 Dec 03:12:53 03:17:22 28° 298° (WNW) 03:21:49 435.225
MOZHAYETS 4 08 Dec 03:17:03 03:21:13 34° 264° (W) 03:25:25
BRITE-PL 08 Dec 03:22:02 03:22:28 10° 83° (E) 03:22:53 437.365/2234.400
SO-50 08 Dec 03:23:54 03:28:28 69° 49° (NE) 03:32:56 436.795
CUBESAT XI-V 08 Dec 03:25:21 03:29:47 50° 70° (ENE) 03:34:15 437.345
YUBILEINY 08 Dec 03:26:50 03:32:29 18° 52° (NE) 03:38:08 435.215
STARS 08 Dec 03:29:36 03:34:02 78° 74° (ENE) 03:38:30 437.465
KKS-1 08 Dec 03:30:13 03:34:35 52° 260° (W) 03:38:59 437.445
ITAMSAT 1 08 Dec 03:31:28 03:36:38 67° 289° (WNW) 03:41:45 435.822/435.867
BEESAT 3 08 Dec 03:44:53 03:48:04 25° 116° (ESE) 03:51:20 437.485
AO-85 08 Dec 04:02:51 04:05:20 14° 334° (NNW) 04:07:43 145.980
BEESAT 2 08 Dec 04:18:54 04:22:12 26° 116° (ESE) 04:25:33 435.950
GOMX 1 08 Dec 04:21:43 04:25:10 17° 87° (E) 04:28:36 467.674
AO-7 08 Dec 04:25:03 04:33:23 70° 295° (WNW) 04:41:41 29.400- 29.500
HORYU 2 08 Dec 04:32:17 04:35:59 25° 94° (E) 04:39:39 437.375
STRAND 1 08 Dec 04:45:14 04:48:43 19° 58° (ENE) 04:52:11 437.568
BRITE-PL 08 Dec 04:56:24 05:01:50 65° 101° (ESE) 05:07:27 437.365/2234.400
Cosmos 2504 08 Dec 05:01:34 05:09:12 31° 62° (ENE) 05:16:29 435.465 / 435.565
CUBESAT XI-V 08 Dec 05:04:02 05:07:27 20° 269° (W) 05:10:53 437.345
SO-50 08 Dec 05:05:25 05:08:26 18° 248° (WSW) 05:11:24 436.795
STARS 08 Dec 05:09:00 05:10:57 13° 272° (W) 05:12:54 437.465
ITAMSAT 1 08 Dec 05:13:13 05:15:10 12° 308° (NW) 05:17:06 435.822/435.867
BEESAT 3 08 Dec 05:21:48 05:25:32 41° 315° (NW) 05:29:18 437.485
YUBILEINY 08 Dec 05:22:24 05:31:14 69° 77° (ENE) 05:40:03 435.215
CUTE-I 08 Dec 05:22:34 05:27:04 27° 93° (E) 05:31:30 437.470
NOAA 15 08 Dec 05:37:19 05:42:15 38° 97° (E) 05:47:10 137.62
LilacSat-2 08 Dec 05:44:07 05:47:43 41° 98° (E) 05:51:18 437.200
Cubesat XI-IV 08 Dec 05:48:58 05:54:04 43° 98° (E) 05:59:08 437.490
AIST 1 08 Dec 05:50:26 05:54:45 49° 76° (ENE) 05:59:01
NOAA 18 08 Dec 05:51:42 05:56:34 30° 95° (E) 06:01:23 137.9125
Cosmos 2491 08 Dec 05:55:22 06:03:41 50° 89° (E) 06:11:59 435.465 / 435.565
BEESAT 2 08 Dec 05:56:06 05:59:51 39° 315° (NW) 06:03:39 435.950
DOVE 4 08 Dec 05:56:51 06:02:00 48° 97° (E) 06:06:58 437.250
RS-15 08 Dec 05:57:57 06:08:27 40° 107° (ESE) 06:19:20 29.354- 29.394
GOMX 1 08 Dec 05:58:21 06:03:51 82° 285° (WNW) 06:09:21 467.674
HORYU 2 08 Dec 06:08:32 06:12:39 38° 292° (WNW) 06:16:43 437.375
HO-68 08 Dec 06:12:11 06:16:51 18° 87° (E) 06:21:28 435.675
AO-7 08 Dec 06:18:59 06:24:47 21° 317° (NW) 06:30:36 29.400- 29.500
STRAND 1 08 Dec 06:22:12 06:27:20 75° 256° (WSW) 06:32:29 437.568
CUTE 1.7 + AOD 2 08 Dec 06:25:14 06:27:15 13° 88° (E) 06:29:14 437.475
BRITE-PL 08 Dec 06:35:41 06:39:52 23° 298° (WNW) 06:44:12 437.365/2234.400
CANX-2 08 Dec 06:42:43 06:46:04 22° 93° (E) 06:49:25 2200.000
PRISM 08 Dec 06:49:57 06:52:36 17° 61° (ENE) 06:55:17 437.425
Cosmos 2504 08 Dec 06:54:39 07:03:28 72° 266° (W) 07:11:44 435.465 / 435.565
CINEMA 3 08 Dec 06:57:54 07:02:35 47° 98° (E) 07:07:01 145.822/145.860
CUBEBUG 2 08 Dec 07:00:58 07:03:06 13° 87° (E) 07:05:12 437.445
CUTE-I 08 Dec 07:02:13 07:07:21 48° 292° (WNW) 07:12:25 437.470
BEESAT 3 08 Dec 07:03:01 07:04:12 11° 337° (NNW) 07:05:24 437.485
SEEDS 08 Dec 07:03:01 07:06:18 22° 93° (E) 07:09:35 437.485
AIST 2 08 Dec 07:06:52 07:10:41 38° 119° (ESE) 07:14:34 435.215
COMPASS 1 08 Dec 07:09:03 07:11:52 17° 91° (E) 07:14:42 437.405
NOAA 15 08 Dec 07:17:15 07:21:59 34° 296° (WNW) 07:26:42 137.62
LilacSat-2 08 Dec 07:19:08 07:21:45 18° 296° (WNW) 07:24:21 437.200
YUBILEINY 08 Dec 07:20:03 07:27:21 31° 279° (W) 07:34:39 435.215
AO-85 08 Dec 07:28:05 07:30:05 13° 24° (NNE) 07:32:01 145.980
AIST 1 08 Dec 07:28:57 07:31:57 18° 275° (W) 07:34:57
Cubesat XI-IV 08 Dec 07:29:21 07:33:59 31° 297° (WNW) 07:38:36 437.490
NOAA 18 08 Dec 07:32:07 07:37:23 45° 294° (WNW) 07:42:36 137.9125
DOVE 4 08 Dec 07:34:56 07:39:25 28° 297° (WNW) 07:43:48 437.250
UWE-3 08 Dec 07:37:22 07:40:34 20° 91° (E) 07:43:41 435.000/436.395/437.385
BEESAT 2 08 Dec 07:37:31 07:38:43 11° 337° (NNW) 07:39:55 435.950
GOMX 1 08 Dec 07:37:58 07:41:07 16° 304° (NW) 07:44:17 467.674
Cosmos 2491 08 Dec 07:52:26 08:00:41 43° 291° (WNW) 08:08:56 435.465 / 435.565
HO-68 08 Dec 07:58:21 08:05:36 85° 107° (ESE) 08:12:50 435.675
CUTE 1.7 + AOD 2 08 Dec 07:59:21 08:03:33 68° 286° (WNW) 08:07:45 437.475
UNISAT 6 08 Dec 08:06:29 08:10:22 27° 65° (ENE) 08:14:14 437.425
STRAND 1 08 Dec 08:06:33 08:07:23 10° 275° (W) 08:08:14 437.568
RS-15 08 Dec 08:08:11 08:20:07 75° 313° (NW) 08:32:35 29.354- 29.394
AAUSAT CUBESAT 2 08 Dec 08:10:43 08:14:49 59° 100° (E) 08:18:56 437.432
ZACube-1 08 Dec 08:12:26 08:16:05 28° 94° (E) 08:19:41 437.345
CANX-2 08 Dec 08:18:08 08:22:03 38° 291° (WNW) 08:25:59 2200.000
FUNcube-1 08 Dec 08:18:36 08:22:20 30° 95° (E) 08:25:59 145.935
PRISM 08 Dec 08:23:31 08:27:31 54° 259° (W) 08:31:34 437.425
TIGRISAT 08 Dec 08:34:59 08:39:26 45° 70° (ENE) 08:43:50 435.000
JAS-2 08 Dec 08:35:06 08:38:51 18° 57° (ENE) 08:42:24 435.910
CINEMA 3 08 Dec 08:35:34 08:39:25 24° 297° (WNW) 08:43:07 145.822/145.860
CUBEBUG 2 08 Dec 08:35:53 08:40:17 69° 286° (WNW) 08:44:31 437.445
ANTELSAT 08 Dec 08:37:04 08:41:34 49° 71° (ENE) 08:46:02 437.575/2403.000
DANDE 08 Dec 08:38:00 08:39:23 12° 93° (E) 08:40:39 436.750
SEEDS 08 Dec 08:38:14 08:42:09 39° 290° (WNW) 08:46:03 437.485
COMPASS 1 08 Dec 08:43:40 08:47:42 49° 289° (WNW) 08:51:43 437.405
AIST 2 08 Dec 08:45:31 08:49:14 31° 319° (NW) 08:53:00 435.215
Oscar 11 08 Dec 08:45:37 08:49:52 55° 100° (E) 08:54:05 145.826/435.025
DELFI C3 08 Dec 08:47:45 08:50:53 22° 93° (E) 08:54:00 145.870
Cosmos 2504 08 Dec 08:50:14 08:55:09 17° 288° (WNW) 08:59:56 435.465 / 435.565
POPSAT HIP 1 08 Dec 08:56:55 08:58:06 11° 56° (ENE) 08:59:16 437.405
AO-85 08 Dec 09:07:28 09:11:28 53° 48° (NE) 09:15:15 145.980
CUSAT 1 08 Dec 09:07:30 09:10:22 70° 280° (W) 09:12:59 437.405
UWE-3 08 Dec 09:13:09 09:17:16 44° 290° (WNW) 09:21:15 435.000/436.395/437.385
HUMSAT D 08 Dec 09:17:53 09:21:16 24° 94° (E) 09:24:38 437.325/437.525
PCSat 08 Dec 09:25:05 09:27:45 14° 103° (ESE) 09:30:24 145.827
UNISAT 6 08 Dec 09:42:31 09:46:54 40° 262° (W) 09:51:17 437.425
Cosmos 2499 08 Dec 09:46:29 09:53:59 31° 63° (ENE) 10:01:01 435.465 / 435.565
NANOSAT C BR1 08 Dec 09:46:41 09:50:23 30° 66° (ENE) 09:54:06 145.865
HO-68 08 Dec 09:47:00 09:52:33 25° 308° (NW) 09:58:06 435.675
AAUSAT CUBESAT 2 08 Dec 09:47:19 09:49:52 16° 299° (WNW) 09:52:27 437.432
ZACube-1 08 Dec 09:48:39 09:52:23 31° 293° (WNW) 09:56:03 437.345
QB50P2 08 Dec 09:54:46 09:58:46 40° 69° (ENE) 10:02:47 145.880/145.840
FUNcube-1 08 Dec 09:54:54 09:58:32 29° 294° (WNW) 10:02:07 145.935
POLYITAN 1 08 Dec 09:55:15 09:59:14 38° 69° (ENE) 10:03:13 437.675
Cosmos 2491 08 Dec 09:58:51 10:00:32 11° 318° (NW) 10:02:14 435.465 / 435.565
GONETS M04 08 Dec 10:00:20 10:08:08 34° 65° (ENE) 10:15:53
DUCHIFAT 1 08 Dec 10:07:07 10:11:08 43° 70° (ENE) 10:15:11 145.980
QB50P1 08 Dec 10:07:13 10:11:22 50° 71° (ENE) 10:15:31 145.935-145.965
TIGRISAT 08 Dec 10:12:33 10:16:18 23° 267° (W) 10:20:01 435.000
ANTELSAT 08 Dec 10:14:57 10:18:31 21° 268° (W) 10:22:04 437.575/2403.000
JAS-2 08 Dec 10:17:07 10:23:23 88° 251° (WSW) 10:28:59 435.910
DANDE 08 Dec 10:18:03 10:21:56 44° 283° (WNW) 10:25:00 436.750
BEESAT 3 08 Dec 10:21:35 10:23:15 12° 25° (NNE) 10:24:55 437.485
DELFI C3 08 Dec 10:22:09 10:25:49 36° 290° (WNW) 10:29:28 145.870
Oscar 11 08 Dec 10:22:41 10:25:37 18° 298° (WNW) 10:28:32 145.826/435.025
RS-15 08 Dec 10:23:51 10:35:01 39° 343° (NNW) 10:46:25 29.354- 29.394
AIST 2 08 Dec 10:28:25 10:29:01 10° 342° (NNW) 10:29:37 435.215
POPSAT HIP 1 08 Dec 10:28:51 10:33:08 81° 77° (ENE) 10:37:28 437.405
AO-85 08 Dec 10:48:45 10:51:27 18° 247° (WSW) 10:54:06 145.980
BUGSAT 1 08 Dec 10:53:06 10:57:14 52° 71° (ENE) 11:01:23 437.445
HUMSAT D 08 Dec 10:53:17 10:56:57 33° 292° (WNW) 11:00:36 437.325/437.525
BEESAT 2 08 Dec 10:56:14 10:58:07 13° 26° (NNE) 10:59:59 435.950
Oscar 19 08 Dec 11:01:35 11:05:29 22° 60° (ENE) 11:09:23 437.125/150
PCSat 08 Dec 11:04:52 11:10:17 83° 122° (ESE) 11:15:45 145.827
AISAT 08 Dec 11:08:48 11:12:31 25° 94° (E) 11:16:13 437.250
ESTCUBE 1 08 Dec 11:13:03 11:17:33 60° 101° (ESE) 11:22:01 437.505/2401.250
Gurwin Techsat 1B 08 Dec 11:19:25 11:22:59 19° 57° (ENE) 11:26:33 435.225
NANOSAT C BR1 08 Dec 11:22:17 11:26:03 30° 264° (W) 11:29:52 145.865
CUBEBUG 1 08 Dec 11:27:19 11:31:42 53° 100° (E) 11:36:02 437.445
QB50P2 08 Dec 11:31:18 11:34:42 23° 267° (W) 11:38:07 145.880/145.840
POLYITAN 1 08 Dec 11:31:40 11:35:09 24° 266° (W) 11:38:38 437.675
Cosmos 2499 08 Dec 11:39:21 11:47:55 70° 266° (W) 11:55:50 435.465 / 435.565
DUCHIFAT 1 08 Dec 11:43:47 11:47:01 21° 267° (W) 11:50:16 145.980
QB50P1 08 Dec 11:44:26 11:47:25 18° 269° (W) 11:50:25 145.935-145.965
VELOX 1 08 Dec 11:45:05 11:49:29 53° 100° (E) 11:53:51 145.980
AO-7 08 Dec 11:47:09 11:52:08 18° 39° (NE) 11:57:08 29.400- 29.500
DX 1 08 Dec 11:49:39 11:53:37 32° 97° (E) 11:57:34 434.975-435.025
UKube-1 08 Dec 11:51:38 11:55:18 26° 95° (E) 11:58:56 .
GONETS M04 08 Dec 11:56:58 12:05:32 63° 268° (W) 12:14:06
BEESAT 3 08 Dec 11:57:56 12:01:50 47° 47° (NE) 12:05:41 437.485
SPROUT 08 Dec 11:58:16 12:02:29 50° 100° (E) 12:06:38 437.525
JAS-2 08 Dec 12:05:51 12:09:07 15° 271° (W) 12:12:14 435.910
POPSAT HIP 1 08 Dec 12:08:07 12:09:29 11° 273° (W) 12:10:53 437.405
50 SAT 08 Dec 12:18:57 12:22:30 69° 286° (WNW) 12:26:03 437.505
BUGSAT 1 08 Dec 12:30:04 12:32:54 17° 269° (W) 12:35:46 437.445
BEESAT 2 08 Dec 12:32:52 12:36:50 51° 47° (NE) 12:40:45 435.950
Oscar 19 08 Dec 12:39:20 12:44:23 61° 259° (WSW) 12:49:31 437.125/150
RS-15 08 Dec 12:40:17 12:51:39 39° 17° (NNE) 13:02:56 29.354- 29.394
AISAT 08 Dec 12:44:55 12:49:06 39° 292° (WNW) 12:53:15 437.250
PCSat 08 Dec 12:49:58 12:54:20 24° 324° (NW) 12:58:44 145.827
ESTCUBE 1 08 Dec 12:50:50 12:53:56 18° 299° (WNW) 12:57:02 437.505/2401.250
Gurwin Techsat 1B 08 Dec 12:56:59 13:02:19 80° 256° (WSW) 13:07:41 435.225
CUBEBUG 1 08 Dec 13:04:24 13:07:38 20° 298° (WNW) 13:10:50 437.445
TISAT 1 08 Dec 13:10:25 13:14:33 50° 100° (E) 13:18:38 437.305
ITAMSAT 1 08 Dec 13:13:53 13:18:44 40° 66° (ENE) 13:23:36 435.822/435.867
ITUPSAT 1 08 Dec 13:20:16 13:22:52 14° 89° (E) 13:25:28 437.325
VELOX 1 08 Dec 13:22:20 13:25:34 20° 299° (WNW) 13:28:49 145.980
DX 1 08 Dec 13:25:56 13:29:45 29° 295° (WNW) 13:33:34 434.975-435.025
UKube-1 08 Dec 13:27:26 13:31:24 36° 293° (WNW) 13:35:22 .
Cosmos 2499 08 Dec 13:34:52 13:39:16 15° 289° (WNW) 13:43:32 435.465 / 435.565
SPROUT 08 Dec 13:34:59 13:38:04 19° 298° (WNW) 13:41:08 437.525
AO-7 08 Dec 13:35:10 13:43:13 57° 62° (ENE) 13:51:20 29.400- 29.500
BEESAT 3 08 Dec 13:36:07 13:39:11 21° 245° (WSW) 13:42:14 437.485
AUBIESAT-1 08 Dec 13:44:57 13:47:53 17° 95° (E) 13:50:43 437.475
AIST 2 08 Dec 13:46:58 13:49:46 17° 30° (NNE) 13:52:35 435.215
GONETS M04 08 Dec 13:56:46 14:00:29 13° 290° (WNW) 14:04:12
M-CUBED/EXP-1 PRIME 08 Dec 13:58:51 14:02:52 28° 99° (E) 14:06:43 437.505
O/OREOS (USA 219) 08 Dec 14:01:17 14:03:05 12° 97° (E) 14:04:53 437.305
BEESAT 2 08 Dec 14:11:18 14:14:19 20° 246° (WSW) 14:17:19 435.950
SWISSCUBE 08 Dec 14:23:09 14:27:53 62° 102° (ESE) 14:32:35 437.505
BEESAT 08 Dec 14:26:54 14:31:37 60° 102° (ESE) 14:36:19 436.000
BRITE-PL 08 Dec 14:35:22 14:37:44 14° 56° (NE) 14:40:11 437.365/2234.400
PCSat 08 Dec 14:38:46 14:39:50 10° 349° (N) 14:40:54 145.827
Gurwin Techsat 1B 08 Dec 14:41:14 14:43:08 12° 275° (W) 14:45:02 435.225
TISAT 1 08 Dec 14:46:50 14:49:51 19° 298° (WNW) 14:52:51 437.305
ITAMSAT 1 08 Dec 14:53:40 14:58:17 31° 264° (W) 15:02:56 435.822/435.867
RS-15 08 Dec 14:54:06 15:06:35 75° 47° (NE) 15:18:42 29.354- 29.394
ITUPSAT 1 08 Dec 14:56:29 15:01:16 75° 287° (WNW) 15:06:01 437.325
MOZHAYETS 4 08 Dec 15:08:00 15:12:21 42° 98° (E) 15:16:40
ISS 08 Dec 15:08:29 15:11:23 29° 143° (SE) 15:14:17 145.825
CUTE-I 08 Dec 15:12:06 15:13:45 11° 51° (NE) 15:15:25 437.470
STARS 08 Dec 15:18:01 15:19:11 11° 87° (E) 15:20:20 437.465
KKS-1 08 Dec 15:18:03 15:21:38 23° 93° (E) 15:25:11 437.445
AUBIESAT-1 08 Dec 15:18:07 15:22:43 65° 293° (WNW) 15:27:05 437.475
NOAA 15 08 Dec 15:24:03 15:26:58 15° 54° (NE) 15:29:53 137.62
AIST 2 08 Dec 15:24:42 15:28:57 77° 51° (NE) 15:33:11 435.215
AO-7 08 Dec 15:28:41 15:36:18 39° 263° (W) 15:44:00 29.400- 29.500
DOVE 4 08 Dec 15:31:36 15:33:14 11° 52° (NE) 15:34:53 437.250
M-CUBED/EXP-1 PRIME 08 Dec 15:33:01 15:37:25 41° 298° (WNW) 15:41:40 437.505
GOMX 1 08 Dec 15:33:07 15:36:48 22° 61° (ENE) 15:40:41 467.674
HORYU 2 08 Dec 15:33:12 15:37:18 36° 67° (ENE) 15:41:25 437.375
Cubesat XI-IV 08 Dec 15:36:49 15:40:17 18° 56° (NE) 15:43:46 437.490
O/OREOS (USA 219) 08 Dec 15:37:14 15:41:48 84° 297° (WNW) 15:46:22 437.305
NOAA 18 08 Dec 15:43:50 15:46:56 15° 52° (NE) 15:50:01 137.9125
Cosmos 2491 08 Dec 16:01:13 16:08:42 30° 63° (ENE) 16:16:07 435.465 / 435.565
SWISSCUBE 08 Dec 16:01:52 16:05:14 20° 300° (WNW) 16:08:36 437.505
BEESAT 08 Dec 16:05:34 16:08:59 20° 300° (WNW) 16:12:23 436.000
BRITE-PL 08 Dec 16:11:02 16:15:27 85° 259° (WSW) 16:20:16 437.365/2234.400
PCSat 08 Dec 16:24:01 16:25:55 12° 16° (NNE) 16:27:49 145.827
LilacSat-2 08 Dec 16:29:09 16:32:38 34° 69° (ENE) 16:36:08 437.200
CINEMA 3 08 Dec 16:29:17 16:30:38 11° 54° (NE) 16:31:59 145.822/145.860
YUBILEINY 08 Dec 16:36:08 16:40:41 15° 71° (ENE) 16:45:14 435.215
ITUPSAT 1 08 Dec 16:36:31 16:38:17 12° 306° (NW) 16:40:03 437.325
ISS 08 Dec 16:44:26 16:47:43 65° 342° (NNW) 16:51:01 145.825
HO-68 08 Dec 16:45:06 16:50:20 22° 51° (NE) 16:55:35 435.675
MOZHAYETS 4 08 Dec 16:45:37 16:49:18 25° 296° (WNW) 16:52:59
CUTE-I 08 Dec 16:47:29 16:52:45 60° 70° (ENE) 16:58:03 437.470
STARS 08 Dec 16:51:43 16:56:10 88° 286° (WNW) 17:00:35 437.465
KKS-1 08 Dec 16:54:07 16:58:23 42° 291° (WNW) 17:02:36 437.445
AUBIESAT-1 08 Dec 16:54:42 16:56:12 11° 312° (NW) 16:57:42 437.475
CUBESAT XI-V 08 Dec 16:55:17 16:59:59 78° 102° (ESE) 17:04:40 437.345
NOAA 15 08 Dec 17:00:44 17:05:59 84° 73° (ENE) 17:11:16 137.62
AIST 2 08 Dec 17:04:36 17:06:52 14° 250° (WSW) 17:09:08 435.215
DOVE 4 08 Dec 17:04:59 17:09:51 65° 73° (ENE) 17:15:01 437.250
RS-15 08 Dec 17:07:18 17:18:18 41° 253° (WSW) 17:29:02 29.354- 29.394
GOMX 1 08 Dec 17:09:51 17:14:28 55° 261° (W) 17:19:27 467.674
HORYU 2 08 Dec 17:10:06 17:13:55 27° 265° (W) 17:17:45 437.375
Cubesat XI-IV 08 Dec 17:14:18 17:19:42 85° 257° (WSW) 17:25:07 437.490
O/OREOS (USA 219) 08 Dec 17:19:26 17:21:57 14° 316° (NW) 17:24:29 437.305
NOAA 18 08 Dec 17:21:11 17:26:43 78° 72° (ENE) 17:32:18 137.9125
CUTE 1.7 + AOD 2 08 Dec 17:21:14 17:23:44 16° 61° (ENE) 17:26:14 437.475
CANX-2 08 Dec 17:38:43 17:42:11 25° 66° (ENE) 17:45:39 2200.000
Cosmos 2504 08 Dec 17:45:40 17:51:43 22° 76° (ENE) 17:57:56 435.465 / 435.565
Cosmos 2491 08 Dec 17:57:42 18:06:22 72° 266° (W) 18:15:01 435.465 / 435.565
SEEDS 08 Dec 17:57:59 18:01:20 24° 65° (ENE) 18:04:42 437.485
CUBEBUG 2 08 Dec 18:01:30 18:04:56 20° 62° (ENE) 18:08:19 437.445
CINEMA 3 08 Dec 18:01:51 18:06:47 64° 73° (ENE) 18:11:47 145.822/145.860
COMPASS 1 08 Dec 18:03:09 18:06:05 19° 63° (ENE) 18:09:01 437.405
LilacSat-2 08 Dec 18:04:02 18:07:01 21° 267° (W) 18:10:01 437.200
PCSat 08 Dec 18:06:24 18:11:10 30° 41° (NE) 18:15:55 145.827
ISS 08 Dec 18:21:22 18:24:33 40° 2° (N) 18:27:42 145.825
AIST 1 08 Dec 18:23:47 18:27:15 24° 88° (E) 18:30:46
YUBILEINY 08 Dec 18:27:08 18:35:45 70° 94° (E) 18:44:28 435.215
CUTE-I 08 Dec 18:29:08 18:33:13 22° 269° (W) 18:37:18 437.470
STRAND 1 08 Dec 18:29:33 18:33:58 29° 95° (E) 18:38:21 437.568
HO-68 08 Dec 18:29:57 18:37:09 87° 72° (ENE) 18:44:24 435.675
STARS 08 Dec 18:29:59 18:31:50 12° 304° (WNW) 18:33:40 437.465
CUBESAT XI-V 08 Dec 18:34:04 18:36:47 15° 301° (WNW) 18:39:29 437.345
UWE-3 08 Dec 18:37:01 18:40:55 27° 66° (ENE) 18:44:46 435.000/436.395/437.385
NOAA 15 08 Dec 18:43:34 18:46:26 15° 272° (W) 18:49:19 137.62
DOVE 4 08 Dec 18:44:36 18:48:02 19° 272° (W) 18:51:38 437.250
CUTE 1.7 + AOD 2 08 Dec 18:54:56 18:59:07 64° 260° (W) 19:03:18 437.475
Cubesat XI-IV 08 Dec 18:58:09 19:00:34 13° 274° (W) 19:02:59 437.490
AAUSAT CUBESAT 2 08 Dec 19:03:49 19:07:51 59° 73° (ENE) 19:11:55 437.432
NOAA 18 08 Dec 19:04:23 19:08:00 18° 271° (W) 19:11:39 137.9125
ZACube-1 08 Dec 19:10:56 19:15:03 36° 68° (ENE) 19:19:07 437.345
CANX-2 08 Dec 19:14:02 19:17:54 35° 263° (W) 19:21:48 2200.000
FUNcube-1 08 Dec 19:16:49 19:20:58 37° 69° (ENE) 19:25:03 145.935
SO-50 08 Dec 19:20:52 19:25:34 64° 124° (SE) 19:30:14 436.795
SEEDS 08 Dec 19:33:01 19:36:53 36° 263° (W) 19:40:45 437.485
CUSAT 1 08 Dec 19:33:09 19:36:51 84° 79° (E) 19:41:45 437.405
Cosmos 2504 08 Dec 19:35:18 19:43:50 88° 98° (E) 19:52:48 435.465 / 435.565
CUBEBUG 2 08 Dec 19:36:28 19:41:09 59° 260° (W) 19:45:48 437.445
DELFI C3 08 Dec 19:36:53 19:39:49 21° 65° (ENE) 19:42:47 145.870
COMPASS 1 08 Dec 19:37:20 19:41:19 47° 261° (W) 19:45:20 437.405
CINEMA 3 08 Dec 19:40:49 19:44:19 19° 271° (W) 19:47:53 145.822/145.860
Oscar 11 08 Dec 19:43:17 19:47:34 64° 73° (ENE) 19:51:51 145.826/435.025
PCSat 08 Dec 19:49:35 19:54:56 60° 242° (WSW) 20:00:16 145.827
Cosmos 2491 08 Dec 19:56:51 20:01:33 16° 288° (WNW) 20:06:17 435.465 / 435.565
ISS 08 Dec 19:58:00 20:01:19 76° 19° (NNE) 20:04:38 145.825
AIST 1 08 Dec 20:00:41 20:04:40 35° 287° (WNW) 20:08:43
PRISM 08 Dec 20:02:22 20:04:58 16° 91° (E) 20:07:33 437.425
STRAND 1 08 Dec 20:08:29 20:13:16 42° 293° (WNW) 20:18:03 437.568
HUMSAT D 08 Dec 20:12:11 20:15:45 28° 67° (ENE) 20:19:17 437.325/437.525
UWE-3 08 Dec 20:12:53 20:17:13 38° 263° (W) 20:21:31 435.000/436.395/437.385
HO-68 08 Dec 20:20:42 20:25:46 20° 271° (W) 20:30:53 435.675
YUBILEINY 08 Dec 20:25:50 20:33:21 31° 297° (WNW) 20:40:57 435.215
AAUSAT CUBESAT 2 08 Dec 20:41:29 20:43:43 14° 271° (W) 20:45:58 437.432
ESTCUBE 1 08 Dec 20:42:26 20:44:01 12° 56° (NE) 20:45:36 437.505/2401.250
ZACube-1 08 Dec 20:47:31 20:51:23 28° 266° (W) 20:55:14 437.345
DANDE 08 Dec 20:50:10 20:52:57 48° 261° (W) 20:56:20 436.750
FUNcube-1 08 Dec 20:53:30 20:57:16 26° 266° (W) 21:01:01 145.935
SO-50 08 Dec 21:02:24 21:06:25 27° 324° (NW) 21:10:23 436.795
DELFI C3 08 Dec 21:10:45 21:14:25 38° 262° (W) 21:18:07 145.870
VELOX 1 08 Dec 21:13:20 21:14:03 10° 54° (NE) 21:14:46 145.980
Oscar 11 08 Dec 21:21:46 21:24:08 14° 271° (W) 21:26:31 145.826/435.025
UNISAT 6 08 Dec 21:30:47 21:34:46 32° 96° (E) 21:38:37 437.425
Cosmos 2504 08 Dec 21:31:39 21:38:30 26° 301° (WNW) 21:45:36 435.465 / 435.565
ISS 08 Dec 21:34:52 21:37:35 23° 219° (SW) 21:40:17 145.825
PRISM 08 Dec 21:36:31 21:40:36 55° 289° (WNW) 21:44:40 437.425
HUMSAT D 08 Dec 21:47:33 21:51:17 31° 264° (W) 21:55:01 437.325/437.525
TIGRISAT 08 Dec 21:59:33 22:03:54 59° 100° (E) 22:08:08 435.000
ANTELSAT 08 Dec 22:01:50 22:06:14 66° 100° (E) 22:10:31 437.575/2403.000
AISAT 08 Dec 22:09:05 22:13:05 34° 67° (ENE) 22:17:08 437.250
POPSAT HIP 1 08 Dec 22:13:07 22:13:43 10° 87° (E) 22:14:18 437.405
ESTCUBE 1 08 Dec 22:15:36 22:20:05 82° 73° (ENE) 22:24:35 437.505/2401.250
CUBEBUG 1 08 Dec 22:26:12 22:30:32 66° 72° (ENE) 22:34:56 437.445
Cosmos 2499 08 Dec 22:28:24 22:34:37 22° 76° (ENE) 22:40:56 435.465 / 435.565
VELOX 1 08 Dec 22:45:17 22:49:41 72° 73° (ENE) 22:54:08 145.980
SO-50 08 Dec 22:47:04 22:48:27 11° 347° (NNW) 22:49:50 436.795
DX 1 08 Dec 22:48:07 22:52:15 43° 69° (ENE) 22:56:25 434.975-435.025
UKube-1 08 Dec 22:49:07 22:53:01 34° 67° (ENE) 22:56:57 .
SPROUT 08 Dec 22:54:34 22:58:48 59° 72° (ENE) 23:03:05 437.525
50 SAT 08 Dec 22:57:03 23:00:33 80° 77° (ENE) 23:04:05 437.505
NANOSAT C BR1 08 Dec 23:02:45 23:06:35 32° 96° (E) 23:10:22 145.865
GONETS M04 08 Dec 23:06:37 23:14:04 34° 83° (E) 23:21:32
JAS-2 08 Dec 23:07:02 23:12:09 56° 101° (E) 23:17:31 435.910
UNISAT 6 08 Dec 23:07:36 23:11:24 29° 294° (WNW) 23:15:07 437.425
QB50P2 08 Dec 23:11:39 23:15:45 45° 99° (E) 23:19:48 145.880/145.840
POLYITAN 1 08 Dec 23:12:06 23:16:10 43° 99° (E) 23:20:11 437.675
DUCHIFAT 1 08 Dec 23:23:05 23:27:11 48° 99° (E) 23:31:14 145.980
QB50P1 08 Dec 23:23:59 23:28:12 57° 101° (E) 23:32:21 145.935-145.965
TIGRISAT 08 Dec 23:37:15 23:40:09 17° 300° (WNW) 23:43:00 435.000
ANTELSAT 08 Dec 23:39:46 23:42:27 16° 300° (WNW) 23:45:04 437.575/2403.000
PHONESAT 2.4 08 Dec 23:42:21 23:43:46 13° 167° (SSE) 23:45:12 2401.200-2431.200
AISAT 08 Dec 23:45:44 23:49:35 28° 265° (W) 23:53:29 437.250
POPSAT HIP 1 08 Dec 23:45:50 23:50:07 86° 285° (WNW) 23:54:20 437.405
ESTCUBE 1 08 Dec 23:55:45 23:57:29 12° 273° (W) 23:59:14 437.505/2401.250
SWISSCUBE 08 Dec 23:57:29 00:00:20 16° 57° (ENE) 00:03:11 437.505
BEESAT 09 Dec 00:01:14 00:04:02 16° 57° (ENE) 00:06:49 436.000
O/OREOS (USA 219) 09 Dec 00:04:47 00:09:05 43° 58° (ENE) 00:13:21 437.305
TISAT 1 09 Dec 00:04:50 00:09:00 58° 72° (ENE) 00:13:12 437.305
CUBEBUG 1 09 Dec 00:04:51 00:07:17 15° 271° (W) 00:09:44 437.445
BUGSAT 1 09 Dec 00:06:41 00:10:49 55° 100° (E) 00:14:52 437.445
Cosmos 2499 09 Dec 00:17:48 00:26:30 88° 99° (E) 00:35:29 435.465 / 435.565
VELOX 1 09 Dec 00:24:25 00:26:39 14° 271° (W) 00:28:54 145.980
DX 1 09 Dec 00:25:16 00:28:38 22° 267° (W) 00:32:02 434.975-435.025
UKube-1 09 Dec 00:25:25 00:29:06 27° 265° (W) 00:32:48 .
SO-50 09 Dec 00:29:38 00:31:03 11° 13° (NNE) 00:32:28 436.795
ITUPSAT 1 09 Dec 00:29:43 00:33:39 26° 63° (ENE) 00:37:35 437.325
SPROUT 09 Dec 00:32:29 00:35:07 16° 270° (W) 00:37:46 437.525
AUBIESAT-1 09 Dec 00:32:35 00:36:29 34° 61° (ENE) 00:40:35 437.475
NANOSAT C BR1 09 Dec 00:38:37 00:42:13 28° 294° (WNW) 00:45:48 145.865
M-CUBED/EXP-1 PRIME 09 Dec 00:47:19 00:51:30 55° 65° (ENE) 00:55:59 437.505
Oscar 19 09 Dec 00:47:22 00:52:10 37° 97° (E) 00:56:57 437.125/150
QB50P2 09 Dec 00:48:05 00:51:16 21° 297° (WNW) 00:54:25 145.880/145.840
POLYITAN 1 09 Dec 00:48:29 00:51:43 22° 297° (WNW) 00:54:56 437.675
JAS-2 09 Dec 00:52:59 00:56:59 23° 300° (WNW) 01:01:04 435.910
DUCHIFAT 1 09 Dec 00:59:30 01:02:33 20° 298° (WNW) 01:05:35 145.980
QB50P1 09 Dec 01:00:46 01:03:33 17° 299° (WNW) 01:06:19 145.935-145.965
GONETS M04 09 Dec 01:01:46 01:10:23 63° 284° (WNW) 01:19:02
AO-85 09 Dec 01:04:10 01:08:56 55° 122° (ESE) 01:13:20 145.980
Gurwin Techsat 1B 09 Dec 01:09:58 01:14:43 31° 95° (E) 01:19:24 435.225
PHONESAT 2.4 09 Dec 01:16:34 01:18:24 17° 184° (S) 01:20:13 2401.200-2431.200
